Volver al catálogo

NOAA 16 DEB

ActivoSSO
NORAD 41162·DEBRIS·🇺🇸 United States

Lanzado Sep 21, 2000 desde Vandenberg Space Force Base

Loading…

Próximos Pases (próximas 24 horas)

TLE

ActualizadoSource: Space-Track

Época: Sep 13, 2026, 02:55 UTC

1 41162U 00055CV  26256.12167195  .00002333  00000-0  95015-3 0  9991
2 41162  98.7130 320.2860 0025994 293.1154  66.7288 14.28256788556238

Sigue NOAA 16 DEB en tiempo real con AllMySat

Download on the App Store